Stations météo

Publicité
Preston, Moor Park, Grande-Bretagne (99113): Température de l'air & dewpoint: 18.01.2021 06:00:00 - 24.01.2021 06:00:00 (GMT)Preston, Moor Park, Grande-Bretagne (99113): Quantités de précipitations: 18.01.2021 06:00:00 - 24.01.2021 06:00:00 (GMT)
Date & Time tt [°C] td [°C] rr [mm]
24.01.2021 06:00:00 -1,2 -1,5 0,0
24.01.2021 05:00:00 -1,2 -1,4 0,0
24.01.2021 04:00:00 -1,7 -1,8 0,0
24.01.2021 03:00:00 -2,0 -2,1 0,0
24.01.2021 02:00:00 -2,9 -3,1 0,0
24.01.2021 01:00:00 -3,7 -3,9 0,0
24.01.2021 00:00:00 -3,0 -3,1 0,0
23.01.2021 23:00:00 -3,0 -3,1 0,0
23.01.2021 22:00:00 -2,4 -2,4 0,0
23.01.2021 21:00:00 -2,2 -2,3 0,0
23.01.2021 20:00:00 -1,9 -2,1 0,0
23.01.2021 19:00:00 -1,9 -2,2 0,0
23.01.2021 18:00:00 -0,9 -1,4 0,0
23.01.2021 17:00:00 0,6 0,2 0,2
23.01.2021 16:00:00 1,4 0,5 0,0
23.01.2021 15:00:00 2,4 1,2 0,0
23.01.2021 14:00:00 2,1 1,1 0,0
23.01.2021 13:00:00 1,9 0,9 1,8
23.01.2021 12:00:00 0,6 0,4 0,0
23.01.2021 11:00:00 0,6 0,4 0,0
23.01.2021 10:00:00 0,8 0,7 0,0
23.01.2021 09:00:00 0,7 0,5 0,0
23.01.2021 08:00:00 0,5 0,4 0,0
23.01.2021 07:00:00 0,5 0,3 0,0
23.01.2021 06:00:00 0,6 0,5 0,0
23.01.2021 05:00:00 0,7 0,4 0,0
23.01.2021 04:00:00 0,2 -0,4 0,0
23.01.2021 03:00:00 1,4 1,0 0,0
23.01.2021 02:00:00 1,5 1,0 0,0
23.01.2021 01:00:00 1,5 0,5 0,0
23.01.2021 00:00:00 2,1 1,2 0,0
22.01.2021 23:00:00 1,7 1,0 0,0
22.01.2021 22:00:00 2,1 1,1 0,4
22.01.2021 21:00:00 2,7 1,4 0,0
22.01.2021 20:00:00 1,5 0,3 0,0
22.01.2021 19:00:00 2,3 0,7 0,0
22.01.2021 18:00:00 2,5 0,9 0,0
22.01.2021 17:00:00 3,5 0,9 0,0
22.01.2021 16:00:00 4,7 1,5 0,0
22.01.2021 15:00:00 5,8 1,0 0,0
22.01.2021 14:00:00 5,6 1,6 0,0
22.01.2021 13:00:00 5,0 2,7 0,2
22.01.2021 12:00:00 4,1 2,7 0,6
22.01.2021 11:00:00 5,1 1,8 0,0
22.01.2021 10:00:00 3,7 1,7 0,0
22.01.2021 09:00:00 2,9 0,5 0,0
22.01.2021 08:00:00 2,7 -0,2 0,0
22.01.2021 07:00:00 3,3 0,4 0,0
22.01.2021 06:00:00 3,8 0,2 0,0
22.01.2021 05:00:00 3,7 0,6 0,0
22.01.2021 04:00:00 3,8 1,4 0,0
22.01.2021 03:00:00 3,9 1,4 0,0
22.01.2021 02:00:00 3,8 1,0 0,0
22.01.2021 01:00:00 3,7 1,5 0,0
22.01.2021 00:00:00 4,2 1,9 0,0
21.01.2021 23:00:00 3,5 1,4 0,0
21.01.2021 22:00:00 4,4 1,8 0,2
21.01.2021 21:00:00 4,8 2,2 0,0
21.01.2021 20:00:00 4,1 1,9 0,0
21.01.2021 19:00:00 4,0 1,8 0,0
21.01.2021 18:00:00 4,1 2,6 0,2
21.01.2021 17:00:00 4,8 2,8 0,4
21.01.2021 16:00:00 5,6 3,1 0,0
21.01.2021 15:00:00 5,9 3,0 0,0
21.01.2021 14:00:00 6,6 4,2 0,0
21.01.2021 13:00:00 5,4 3,4 0,4
21.01.2021 12:00:00 5,4 3,5 0,4
21.01.2021 11:00:00 4,9 3,2 0,2
21.01.2021 10:00:00 4,5 3,3 1,2
21.01.2021 09:00:00 2,9 1,6 2,2
21.01.2021 08:00:00 4,5 1,5 0,0
21.01.2021 07:00:00 4,4 1,7 0,0
21.01.2021 06:00:00 4,5 1,6 0,0
21.01.2021 05:00:00 4,2 1,4 0,0
21.01.2021 04:00:00 2,8 1,5 1,0
21.01.2021 03:00:00 4,0 1,7 0,0
21.01.2021 02:00:00 3,3 1,5 0,2
21.01.2021 01:00:00 3,5 1,5 0,0
21.01.2021 00:00:00 2,7 2,4 0,4
20.01.2021 23:00:00 2,0 1,7 1,4
20.01.2021 22:00:00 1,9 1,6 1,6
20.01.2021 21:00:00 2,4 1,9 2,8
20.01.2021 20:00:00 2,7 2,2 2,8
20.01.2021 19:00:00 3,3 2,8 0,4
20.01.2021 18:00:00 3,8 3,5 0,6
20.01.2021 17:00:00 4,3 4,0 1,6
20.01.2021 16:00:00 4,6 4,3 1,8
20.01.2021 15:00:00 4,9 4,6 2,0
20.01.2021 14:00:00 5,3 5,1 1,2
20.01.2021 13:00:00 5,7 5,5 3,2
20.01.2021 12:00:00 5,9 5,7 3,2
20.01.2021 11:00:00 6,5 6,2 5,8
20.01.2021 10:00:00 9,5 9,4 4,2
20.01.2021 09:00:00 9,4 9,3 2,6
20.01.2021 08:00:00 9,4 9,2 1,8
20.01.2021 07:00:00 9,8 9,7 1,2
20.01.2021 06:00:00 9,6 9,4 1,6
20.01.2021 05:00:00 10,0 9,7 3,4
20.01.2021 04:00:00 10,0 9,5 0,8
20.01.2021 03:00:00 10,1 9,1 0,0
20.01.2021 02:00:00 10,1 9,4 0,0
20.01.2021 01:00:00 10,3 9,8 1,6
20.01.2021 00:00:00 9,9 9,7 2,8
19.01.2021 23:00:00 9,9 9,5 1,0
19.01.2021 22:00:00 10,3 9,7 1,0
19.01.2021 21:00:00 9,9 9,6 3,0
19.01.2021 20:00:00 9,8 9,4 3,6
19.01.2021 19:00:00 10,1 9,1 0,4
19.01.2021 18:00:00 9,7 9,1 1,0
19.01.2021 17:00:00 9,5 9,2 2,8
19.01.2021 16:00:00 9,2 8,8 2,6
19.01.2021 15:00:00 9,3 8,6 1,8
19.01.2021 14:00:00 9,3 8,5 0,6
19.01.2021 13:00:00 9,3 8,3 0,2
19.01.2021 12:00:00 9,2 8,2 1,0
19.01.2021 11:00:00 8,1 8,1 5,8
19.01.2021 10:00:00 7,8 7,8 3,0
19.01.2021 09:00:00 7,6 7,5 2,4
19.01.2021 08:00:00 7,8 7,8 1,8
19.01.2021 07:00:00 7,5 7,5 0,6
19.01.2021 06:00:00 7,7 7,7 0,8
19.01.2021 05:00:00 7,8 7,7 0,6
19.01.2021 04:00:00 7,9 7,9 0,8
19.01.2021 03:00:00 8,1 8,1 1,0
19.01.2021 02:00:00 7,9 7,8 1,4
19.01.2021 01:00:00 7,6 7,5 1,6
19.01.2021 00:00:00 7,4 7,1 0,6
18.01.2021 23:00:00 7,0 6,6 0,4
18.01.2021 22:00:00 6,8 6,4 0,2
18.01.2021 21:00:00 6,4 6,0 0,0
18.01.2021 20:00:00 5,7 5,5 1,8
18.01.2021 19:00:00 5,5 5,2 0,2
18.01.2021 18:00:00 5,4 4,9 0,2
18.01.2021 17:00:00 5,6 4,7 0,0
18.01.2021 16:00:00 6,4 4,5 0,0
18.01.2021 15:00:00 6,8 3,9 0,0
18.01.2021 14:00:00 7,6 3,6 0,0
18.01.2021 13:00:00 6,6 3,8 0,0
18.01.2021 12:00:00 6,5 4,0 0,0
18.01.2021 11:00:00 7,0 4,8 0,0
18.01.2021 10:00:00 5,9 4,6 0,0
18.01.2021 09:00:00 5,7 4,6 0,0
18.01.2021 08:00:00 5,8 4,7 0,0
18.01.2021 07:00:00 6,1 4,6 0,0
18.01.2021 06:00:00 5,8 4,7 0,0

tt = Température de l'air
td = dewpoint
rr = Quantités de précipitations

stations d'obs. à proximité